Погода в Тынде

Погода в Тынде : погода сейчас, прогноз погоды и архив. Всё, что Вы хотите узнать о погоде в Тынде!

Хотите узнать прогноз погоды в Тынде? Тогда Вам сюда: Погода в Тынде

Поиск расширенной информации на нашем сайте:

Другие новости

Новости СМИ2

Главная страница сайта

Новости сайта

03.07.2017

Напоминаем, что на нашем специализированном сайте Метеоцентр.Азия вы можете получить высокодетализированные автоматические прогнозы погоды по пунктам России, СНГ и мира в авиационном формате (включающие направление и скорость ветра, видимость, явления погоды, количество и форму облачности, нижнюю и верхнюю границу облачности).


Погода в Тынде - сегодня

Время (UTC), дата Ветер
(°,м/с) 
Видим.   Явления Облачность Т
(°С)
Тd
(°С)
f(%) Тe
(°С)
Pmin
(гПа)
dP
(гПа)
Po
(мм)
O2
(г/м3)
Тmin Tmax R s Состояние
почвы
21 17.02.18 250 (З) 20000 м    ясно 
-30.6 -34.2 71 -36  1027.3  0.1  716  327           
00 18.02.18 250 (З) 20000 м    9/0 верхняя 
[Ci]
-31.4 -35.1 70 -37  1028  0.5  716  328  -31.9      27  равномерный
сухой снег
100% 
03 18.02.18 240 (ЮЗ) 20000 м    10/0 верхняя 
[Ci fib]
-20.8 -27.5 55 -25  1023.9  -0.9  715  314           
06 18.02.18 350 (С) 20000 м    10/0 средняя, верхняя 
[Ac trans|Cs]
-14.2 -26.1 36 -16  1020.2  -1.7  714  305           
09 18.02.18 010 (С) 20000 м    10/1 600 м средняя, верхняя 
[Sc|Ac trans|Ci fib]
-16.4 -26 43 -19  1021.6  0.8  715  308           
15 18.02.18 280 (З) 20000 м    ясно 
-22.6 -29.2 55 -26  1023.7  -0.2  715  316           
18 18.02.18 270 (З) 20000 м    ясно 
-29.3 -33.2 69 -36  1025.5  -0.2  715  324           
21 18.02.18 260 (З) 20000 м    ясно 
-31.4 -35.4 68 -37  1025.7  -0.4  714  327           
00 19.02.18 260 (З) 20000 м    10/0 верхняя 
[Ci fib]
-29.9 -33.8 69 -35  1025.5  0.2  714  325  -32.8      27  равномерный
сухой снег
100% 
03 19.02.18 360 (С) 20000 м    10/0 верхняя 
[Ci fib]
-20.3 -31.4 36 -23  1022.3  -0.4  714  313           
06 19.02.18 020 (С) 20000 м    10/0 верхняя 
[Cs]
-17.5 -30.1 32 -20  1020.9  -0.6  714  309           
09 19.02.18 320 (СЗ) 20000 м    10/0 средняя, верхняя 
[Ac As|Ci fib]
-18.9 -29.6 38 -19  1022.1  0.8  714  311           
15 19.02.18 270 (З) 20000 м    10/0 верхняя 
[Cs]
-22.7 -29.9 52 -29  1023.1  -0.5  714  316           
18 19.02.18 260 (З) 20000 м    ясно 
-24.9 -30.4 60 -28  1022.9  -0.7  714  318           
21 19.02.18 250 (З) 20000 м    4/0 верхняя 
[Ci fib]
-28.3 -32.1 70 -34  1023.5  -0.4  713  323           
00 20.02.18 250 (З) 20000 м    8/0 верхняя 
[Ci]
-28.9 -32.5 71 -34  1023.5  -0.2  713  323  -29.5      27  равномерный
сухой снег
100% 
03 20.02.18 270 (З) 20000 м    10/0 верхняя 
[Ci]
-19.2 -26.4 53 -22  1020.2  -0.4  713  311           
06 20.02.18 280 (З) 20000 м    10/0 верхняя 
[Ci fib]
-15.5 -26.5 38 -19  1017.7  -1.4  712  306           
09 20.02.18 250 (З) 20000 м    4/0 верхняя 
[Ci fib]
-16.8 -26.7 42 -17  1018.1  712  307           
15 20.02.18 260 (З) 20000 м    10/0 средняя, верхняя 
[Ac trans|Ci fib]
-21.8 -27.6 59 -25  1018.3  -0.8  711  313           
18 20.02.18 250 (З) 20000 м    3/0 средняя 
[Ac trans]
-24.5 -29.2 65 -28  1018.4  -0.6  711  316           
21 20.02.18 240 (ЮЗ) 20000 м    6/0 средняя 
[Ac trans]
-27.9 -31.6 71 -33  1019.1  -0.3  710  321           
00 21.02.18 250 (З) 20000 м    9/0 средняя, верхняя 
[Ac trans|Ci fib]
-30.2 -33.9 70 -36  1020.1  0.2  711  324  -30.2      27  равномерный
сухой снег
100% 
03 21.02.18 240 (ЮЗ) 20000 м    10/0 верхняя 
[Cs]
-21.2 -28.7 51 -24  1016.9  -0.4  710  312  -30.2         
06 21.02.18 350 (С) 20000 м    9/0 средняя, верхняя 
[Ac trans|Ci fib]
-15.4 -27.5 35 -18  1013.9  -1.3  709  305           
Время (UTC), дата Ветер
(°,м/с) 
Видим.   Явления Облачность Т
(°С)
Тd
(°С)
f(%) Тe
(°С)
Pmin
(гПа)
dP
(гПа)
Po
(мм)
O2
(г/м3)
Тmin Tmax R s Состояние
почвы

Для получения пояснительной информации подведите курсор к названию столбца.

ПОГОДА в Тынде - архив

Всё, что Вы хотите узнать о погоде в Тынде - удобно и подробно!

Выберите нужную дату (начиная с 1 января 2015* года) и нажмите кнопку "Найти".
Будут отображены архивные сводки погоды по пункту Тында, начиная с указанной даты.


Отображать данные в формате CSV (для использования в таблицах Excel)


Внимание! Наш архив погоды предназначен исключительно для личного некоммерческого использования в познавательных целях. Если Вам необходимы официальные справки о состоянии погоды (для производственных, юридических, коммерческих и т.п. целей), обращайтесь в органы Росгидромета.

*Примечание: данная дата относится к архиву по метеостанциям СССР (Россия, СНГ, Балтия).
Архив по метеостанциям Зарубежной Европы и Азии (кроме Китая) хранится 10 дней, по другим регионам земного шара (Китай, Африка, Америка, Австралия, Океания) - 1 день.

Тында - район местоположения метеостанции


Название, широта, долгота, высота метеостанции:
Тында 55.2°ш. 124.7°д. 528 м над ур. моря [Российская Федерация]

Дополнительная информация

В oтличие oт бoльшинства пoгoдных сайтoв мы публикуем пoдрoбную метеoинфoрмацию в детальнoм прoфессиoнальнoм фoрмате.

Характеристики температуры и влажнoсти вoздуха измеряются на высoте 2 м в тени вдали oт зданий и деревьев.
Скoрoсть ветра измеряется на высoте 10 м (на урoвне рoста челoвека скoрoсть ветра ниже в 1.5-2 раза). Если метеoстанция нахoдится в гoрoде или в лесу, тo скoрoсть ветра занижена на 2-4 м/с пo сравнению с oткрытым местoм. Скoрoсть ветра над акватoриями крупных рек и oзёр, а также на вершинах хoлмoв на 2-5 м/с выше, чем в oбычных услoвиях.
Атмoсфернoе давление в разных тoчках местнoсти мoжет значительнo oтличаться oт давления на метеoстанции, в зависимoсти oт услoвий рельефа (при пoдъёме на 10 м давление пoнижается примернo на 1 мм рт.ст.).